NIMBUS 2 DEB, 28209

Orbit data source: Space-Track

NIMBUS 2 DEB, 28209 is space debris in SSO originally from a launch on Sun, 15 May 1966 UTC launched from the Air Force Western Test Range (AFWTR). Debris objects in space refer to the collection of defunct objects orbiting the Earth. Examples of debris include non-operational satellites, rocket bodies, and fragments generated from explosions, collisions, or faulty payload assembly.

Loading next visibility...
Identifier
28209, 1966-040X
Orbit
SSO
Country
Flag of USUS
Related business
Manufacturer
Unknown
Mission
Spacecraft
Bus & Motor
Unknown
Mass
Unknown
Launch date (UTC)
1966-05-15 (59 years ago)
Launch vehicle
Unknown
Launch site
Air Force Western Test Range (AFWTR)
Object type
Payload
Rocket body
Debris
Shape & HBR
Unknown shape, 0.1 m
Radar Cross Section
Small (<0.1 m²)

Expand to show TLE details & history
Last TLE update: 4 days ago

TLE from 4 days ago
0 NIMBUS 2 DEB
1 28209U 66040X   25283.71022057  .00002765  00000-0  35302-2 0  9996
2 28209 100.2876 256.8877 0036619 200.1003 339.1491 13.63794151598902
Epoch: 2025-10-10T17:02Z
TLE epoch observation values (Epoch: 2025-10-10T17:02:43.057Z)
Latitude
0.7784°
Longitude
161.7967°
Altitude
999.306 km
Speed
7.365 km/s
True Right ascension
05h 08m 06s
True Declination
0° 46' 26"
Sunlit
Object was in daylight at epoch
Visualization orbit readout
Latitude
Unknown
Longitude
Unknown
Altitude
Unknown
Speed
Unknown
Apparent Right ascension
Unknown
Apparent Declination
Unknown
Sunlit
N/A
Visualization observer readout
Local Sidereal Time
01:38:09
Azimuth
Unknown
Elevation
Unknown
Doppler factor
Unknown
Orbital elements
Apogee altitude
1,046.338 km
Perigee altitude
992.161 km
Semi-major axis
7,397.386 km
Eccentricity
0.00366
Inclination
100.2876°
RAAN
256.8877°
Arg. of periapsis
200.1003°
True anomaly
338.9991°
Mean anomaly
339.1491°
Eccentric anomaly
339.07416°
Mean motion
3.41135 °/min
Orbital period
105.53 mins
BSTAR
0.0035302
Loading maneuver chart data...
Computing Atmospheric mass density...
Loading historical data...
Loading historical data...
Loading historical data...
Loading historical data...
Loading historical data...
Loading historical data...
Loading historical data...

Documentation

Showing up to 5 results
|